Weather in Taormina

Italy     37°51′18″N   15°17′27″E
temp.,
°C
wind,
m/s
gust,
m/s
humid.,
%
clouds,
%
prec.,
mm/h
press.,
hPa
HPBL,
m
19 september, sun
sun1923:00+26nw225475 0.0 101412
02:00+26sw225738 0.0 101322
05:00+25nw335814 0.0 101454
08:00+26ssw34510 0.0 101484
11:00+29se34450 0.0 1014575
14:00+28e32540 0.0 1014420
17:00+28ene34550 0.0 1012405
20:00+25nnw35630 0.0 101378
20 september, mon
mon2023:00+25nnw22590 0.0 101439
02:00+24nnw22570 0.0 101551
05:00+24nw12490 0.0 101444
08:00+25n12450 0.0 101567
11:00+26ese31513 0.0 1016421
14:00+27ese325082 0.0 1015527
17:00+26s2258100 0.0 1014300
20:00+24nnw2367100 0.0 101557
21 september, tue
tue2123:00+24n4569100 0.0 1016145
02:00+23n456880 0.0 1017162
05:00+23nnw3462100 0.0 1016142
08:00+24n556252 0.0 1017244
11:00+27ene32449 0.0 1018744
14:00+26e434825 0.0 1018646
17:00+26se225345 0.0 1018431
20:00+23n1164100 0.0 101942
22 september, wed
wed2223:00+23nne226699 0.0 102096
02:00+21nne33675 0.0 1019169
05:00+21sw126989 0.0 1019138
08:00+22sse127486 0.0 1019454
11:00+22sse347757 0.1 1019462
14:00+24se327192 0.4 1018633
17:00+24e226942 0.3 1017392
20:00+21nw11785 0.4 1017112
23 september, thu
thu2323:00+20nnw22672 0.0 1017158
02:00+19nnw23585 0.0 1017145
05:00+19nw22525 0.0 1017101
08:00+20nnw12472 0.0 1017119
11:00+23se32541 0.0 1018770
14:00+24se43605 0.0 1017736
17:00+22sse44696 0.0 1017580
20:00+21s22799 0.1 1018254